Voltar ao catálogo

STARLINK-4308

AtivoComunicaçõesSSO
NORAD 53061·PAYLOAD·🇺🇸 United States

Lançado Jul 11, 2022 de Vandenberg Space Force Base

Loading…

Próximas Passagens (próximas 24 horas)

TLE

AtualizadoSource: CelesTrak SupGP

Época: Sep 15, 2026, 01:48 UTC

1 53061C 22077U   26258.07548611 -.00043865  00000+0 -13616-2 0  2582
2 53061  97.2861  72.9981 0001550  92.3407 240.0483 15.33462345    10

Acompanhe STARLINK-4308 em tempo real com AllMySat

Download on the App Store